DW9289 Weather Reports


time (UTC)temp
F
wind
direction
speed
knots
gust
knots
rain 1hr
in
rain 24hr
in
rain mn
in
humidity
%
barometer
mb
20260906022402 80 144 0.0 0.0 0.00 0.00 0.00 88 1011.8
20260906021857 80 144 0.0 0.0 0.00 0.00 0.00 88 1011.7
20260906021356 80 144 0.0 0.0 0.00 0.00 0.00 87 1011.6
20260906020851 80 144 0.0 0.0 0.00 0.00 0.00 87 1011.3
20260906020350 80 144 0.0 0.0 0.00 0.00 0.00 87 1011.7
20260906015845 81 143 0.0 0.0 0.00 0.00 0.00 86 1011.5
20260906015344 81 146 0.0 0.0 0.00 0.00 0.00 85 1011.6
20260906014839 81 155 0.0 0.0 0.00 0.00 0.00 84 1011.6
20260906014339 81 154 0.0 0.0 0.00 0.00 0.00 84 1011.6
20260906013830 81 154 0.0 0.0 0.00 0.00 0.00 83 1011.6
20260906013325 81 154 0.0 0.0 0.00 0.00 0.00 83 1011.7
20260906012821 82 154 0.0 0.0 0.00 0.00 0.00 82 1011.6
20260906012321 82 154 0.0 0.0 0.00 0.00 0.00 82 1011.6
20260906011815 82 154 0.0 0.0 0.00 0.00 0.00 82 1011.6
20260906011315 82 154 0.0 0.0 0.00 0.00 0.00 82 1011.8
20260906010812 82 154 0.0 0.0 0.00 0.00 0.00 81 1011.7
20260906010308 82 154 0.0 0.0 0.00 0.00 0.00 80 1012.1
20260906005803 83 154 0.0 0.0 0.00 0.00 0.00 80 1011.9
20260906005301 83 154 0.0 0.0 0.00 0.00 0.00 79 1011.7
20260906004800 83 154 0.0 0.0 0.00 0.00 0.00 78 1011.6
20260906004255 83 154 0.0 0.0 0.00 0.00 0.00 78 1011.7
20260906003750 83 153 0.0 0.0 0.00 0.00 0.00 79 1011.6
20260906003246 84 154 0.0 0.0 0.00 0.00 0.00 78 1011.4
20260906002741 84 154 0.0 0.0 0.00 0.00 0.00 78 1011.4
20260906002241 84 154 0.0 0.0 0.00 0.00 0.00 77 1011.5
20260906001736 84 153 0.0 0.0 0.00 0.00 0.00 77 1011.4
20260906001231 85 154 0.0 0.0 0.00 0.00 0.00 76 1011.5
20260906000727 85 154 0.0 0.0 0.00 0.00 0.00 76 1011.6
20260906000226 86 154 0.0 0.0 0.00 0.00 0.00 75 1011.7
20260905235721 86 154 0.0 0.0 0.00 0.00 0.00 74 1011.4
20260905235216 87 153 0.0 0.0 0.00 0.00 0.00 72 1011.7
20260905234711 87 154 0.0 0.0 0.00 0.00 0.00 71 1011.8
20260905234207 87 154 0.0 0.0 0.00 0.00 0.00 71 1011.8
20260905233702 88 150 0.0 0.0 0.00 0.00 0.00 69 1011.9
20260905233201 88 149 0.0 0.0 0.00 0.00 0.00 69 1011.7
20260905232656 89 154 0.0 0.0 0.00 0.00 0.00 69 1011.8
20260905232152 89 154 0.0 0.0 0.00 0.00 0.00 68 1011.7
20260905231647 90 150 0.0 0.0 0.00 0.00 0.00 66 1011.7
20260905231143 91 157 0.0 0.0 0.00 0.00 0.00 65 1011.3
20260905230639 92 159 0.0 0.0 0.00 0.00 0.00 62 1011.6
20260905230137 93 115 0.0 0.9 0.00 0.00 0.00 59 1011.6
20260905225636 94 156 0.0 0.0 0.00 0.00 0.00 59 1011.7
20260905225131 96 113 0.0 0.0 0.00 0.00 0.00 55 1011.5
20260905224630 96 197 0.0 0.0 0.00 0.00 0.00 52 1011.6
20260905224125 96 324 0.9 0.9 0.00 0.00 0.00 50 1011.3
20260905223622 97 106 0.0 0.9 0.00 0.00 0.00 50 1011.5
20260905223118 97 250 0.0 0.0 0.00 0.00 0.00 51 1011.6
20260905222613 97 188 0.0 0.0 0.00 0.00 0.00 51 1011.4
20260905222108 98 59 0.9 0.9 0.00 0.00 0.00 50 1011.6
20260905221604 98 56 0.0 0.0 0.00 0.00 0.00 47 1011.7
20260905221100 99 217 0.9 0.9 0.00 0.00 0.00 49 1011.7
20260905220555 99 219 0.0 0.0 0.00 0.00 0.00 48 1011.8
20260905220051 98 188 0.0 0.0 0.00 0.00 0.00 49 1011.7
20260905215550 100 180 0.0 0.0 0.00 0.00 0.00 48 1011.5
20260905215047 98 168 0.9 1.7 0.00 0.00 0.00 50 1011.6
20260905214542 98 355 1.7 1.7 0.00 0.00 0.00 47 1011.5
20260905214037 98 272 0.0 0.0 0.00 0.00 0.00 47 1011.6
20260905213532 98 18 1.7 1.7 0.00 0.00 0.00 48 1011.5
20260905213028 100 328 0.0 0.9 0.00 0.00 0.00 45 1011.6
20260905212523 99 274 0.9 0.9 0.00 0.00 0.00 47 1011.7
20260905212022 99 193 0.9 0.9 0.00 0.00 0.00 49 1011.7
20260905211517 99 106 0.0 0.9 0.00 0.00 0.00 48 1011.8
20260905211013 98 315 0.0 0.9 0.00 0.00 0.00 46 1011.6
20260905210509 99 36 1.7 1.7 0.00 0.00 0.00 47 1011.7
20260905210009 98 20 0.9 0.9 0.00 0.00 0.00 48 1011.9
20260905205503 98 277 0.9 0.9 0.00 0.00 0.00 48 1012.1
20260905205002 98 314 0.9 0.9 0.00 0.00 0.00 49 1012.1
20260905204457 97 354 0.9 3.5 0.00 0.00 0.00 50 1012.1
20260905203957 97 189 0.9 0.9 0.00 0.00 0.00 50 1012.2
20260905203452 98 72 1.7 1.7 0.00 0.00 0.00 50 1012.2
20260905202947 98 11 2.6 2.6 0.00 0.00 0.00 50 1012.2
20260905202442 98 75 2.6 2.6 0.00 0.00 0.00 49 1012.4
20260905201938 98 79 1.7 1.7 0.00 0.00 0.00 50 1012.4
20260905201433 100 292 3.5 3.5 0.00 0.00 0.00 47 1012.5
20260905200927 100 335 2.6 3.5 0.00 0.00 0.00 46 1012.5
20260905200423 99 224 0.0 0.0 0.00 0.00 0.00 54 1012.6
20260905195921 99 52 1.7 2.6 0.00 0.00 0.00 49 1012.7
20260905195417 99 278 1.7 2.6 0.00 0.00 0.00 47 1012.9
20260905194912 99 335 0.9 1.7 0.00 0.00 0.00 48 1012.7
20260905194411 98 14 2.6 2.6 0.00 0.00 0.00 49 1012.9
20260905193906 99 238 0.9 0.9 0.00 0.00 0.00 49 1012.9
20260905193401 99 10 0.0 0.9 0.00 0.00 0.00 49 1012.9
20260905192856 99 326 0.0 0.9 0.00 0.00 0.00 49 1012.8
20260905192351 99 302 1.7 1.7 0.00 0.00 0.00 49 1012.9
20260905191851 98 166 0.9 0.9 0.00 0.00 0.00 49 1013.0
20260905191350 98 227 0.9 0.9 0.00 0.00 0.00 50 1013.1
20260905190849 97 227 0.9 0.9 0.00 0.00 0.00 49 1013.2
20260905190342 96 274 0.0 0.0 0.00 0.00 0.00 50 1013.3
20260905185841 96 52 1.7 1.7 0.00 0.00 0.00 50 1013.5
20260905185331 96 96 0.9 1.7 0.00 0.00 0.00 50 1013.8
20260905184830 96 110 0.9 0.9 0.00 0.00 0.00 50 1013.5
20260905184330 98 90 0.9 0.9 0.00 0.00 0.00 47 1013.7
20260905183827 97 303 0.9 0.9 0.00 0.00 0.00 45 1014.0
20260905183324 96 134 0.9 0.9 0.00 0.00 0.00 48 1014.0
20260905182823 95 111 0.9 0.9 0.00 0.00 0.00 50 1014.1
20260905182318 96 348 0.9 1.7 0.00 0.00 0.00 50 1014.0
20260905181813 95 70 0.9 1.7 0.00 0.00 0.00 52 1014.1
20260905181307 95 63 0.9 0.9 0.00 0.00 0.00 50 1014.1
20260905180806 96 120 0.0 0.9 0.00 0.00 0.00 53 1014.3
20260905180301 96 98 0.0 0.9 0.00 0.00 0.00 51 1014.2
20260905175756 95 48 0.0 0.9 0.00 0.00 0.00 51 1014.4
20260905175250 95 174 0.9 1.7 0.00 0.00 0.00 51 1014.2
20260905174746 94 19 0.9 0.9 0.00 0.00 0.00 53 1014.2
20260905174242 94 140 0.9 1.7 0.00 0.00 0.00 53 1014.1
20260905173737 95 9 1.7 2.6 0.00 0.00 0.00 53 1014.2
20260905173233 95 284 0.0 0.0 0.00 0.00 0.00 56 1014.3
20260905172732 94 204 0.9 0.9 0.00 0.00 0.00 56 1014.3
20260905172227 94 226 0.9 0.9 0.00 0.00 0.00 56 1014.3
20260905171723 93 79 0.9 1.7 0.00 0.00 0.00 56 1014.3
20260905171219 93 210 0.9 0.9 0.00 0.00 0.00 58 1014.5
20260905170716 93 25 2.6 2.6 0.00 0.00 0.00 58 1014.6
20260905170216 93 342 0.0 0.9 0.00 0.00 0.00 57 1014.6
20260905165715 93 83 0.9 0.9 0.00 0.00 0.00 58 1014.6
20260905165211 92 77 0.9 0.9 0.00 0.00 0.00 61 1014.7
20260905164710 91 16 0.9 1.7 0.00 0.00 0.00 60 1014.6
20260905164205 91 39 0.9 0.9 0.00 0.00 0.00 60 1014.6
20260905163701 91 10 1.7 1.7 0.00 0.00 0.00 59 1014.8
20260905163157 91 92 0.0 0.0 0.00 0.00 0.00 59 1014.8
20260905162653 91 310 0.9 0.9 0.00 0.00 0.00 60 1015.1
20260905162152 90 208 0.0 0.9 0.00 0.00 0.00 60 1014.9
20260905161647 91 33 1.7 2.6 0.00 0.00 0.00 61 1014.9
20260905161145 91 153 0.0 0.0 0.00 0.00 0.00 63 1014.9
20260905160639 90 270 0.9 0.9 0.00 0.00 0.00 64 1015.0
20260905160138 90 81 0.0 0.9 0.00 0.00 0.00 63 1015.2
20260905155633 90 237 1.7 1.7 0.00 0.00 0.00 62 1015.1
20260905155132 90 340 0.0 0.9 0.00 0.00 0.00 64 1015.1
20260905154632 90 99 0.0 0.9 0.00 0.00 0.00 66 1015.3
20260905154128 89 22 0.9 1.7 0.00 0.00 0.00 66 1015.2
20260905153623 89 29 2.6 2.6 0.00 0.00 0.00 67 1015.4
20260905153119 89 283 0.0 0.9 0.00 0.00 0.00 67 1015.3
20260905152613 88 9 3.5 3.5 0.00 0.00 0.00 67 1015.2
20260905152108 88 108 0.9 0.9 0.00 0.00 0.00 68 1015.4
20260905151603 87 305 0.0 0.9 0.00 0.00 0.00 69 1015.6
20260905151058 87 19 0.9 0.9 0.00 0.00 0.00 70 1015.7
20260905150554 87 29 0.9 1.7 0.00 0.00 0.00 69 1015.6
20260905150051 87 56 0.0 0.0 0.00 0.00 0.00 71 1015.6
20260905145545 87 342 0.9 0.9 0.00 0.00 0.00 71 1015.4
20260905145044 86 19 1.7 1.7 0.00 0.00 0.00 71 1015.3
20260905144539 86 25 1.7 2.6 0.00 0.00 0.00 73 1015.4
20260905144038 85 87 0.0 0.9 0.00 0.00 0.00 74 1015.6
20260905143538 85 30 0.9 1.7 0.00 0.00 0.00 74 1015.7
20260905143033 85 83 0.0 0.0 0.00 0.00 0.00 78 1015.4
20260905142532 84 30 0.0 0.0 0.00 0.00 0.00 79 1015.7
20260905142027 84 62 0.0 0.0 0.00 0.00 0.00 84 1015.6
20260905141521 83 61 0.0 0.0 0.00 0.00 0.00 85 1015.8
20260905141018 82 61 0.0 0.0 0.00 0.00 0.00 84 1015.4
20260905140513 82 61 0.0 0.0 0.00 0.00 0.00 86 1015.3
20260905140011 82 61 0.0 0.0 0.00 0.00 0.00 87 1015.4
20260905135507 81 61 0.0 0.0 0.00 0.00 0.00 87 1015.6
20260905135002 80 61 0.0 0.0 0.00 0.00 0.00 88 1015.6
20260905134502 80 61 0.0 0.0 0.00 0.00 0.00 88 1015.2
20260905134001 80 61 0.0 0.0 0.00 0.00 0.00 88 1015.6
20260905133455 80 61 0.0 0.0 0.00 0.00 0.00 89 1015.6
20260905132949 80 61 0.0 0.0 0.00 0.00 0.00 90 1015.6
20260905132445 79 61 0.0 0.0 0.00 0.00 0.00 90 1015.4
20260905131939 79 61 0.0 0.0 0.00 0.00 0.00 91 1015.4
20260905131435 79 61 0.0 0.0 0.00 0.00 0.00 92 1015.4
20260905130930 78 61 0.0 0.0 0.00 0.00 0.00 93 1015.7
20260905130429 78 61 0.0 0.0 0.00 0.00 0.00 93 1015.6
20260905125924 77 61 0.0 0.0 0.00 0.00 0.00 93 1015.3
20260905125419 76 61 0.0 0.0 0.00 0.00 0.00 94 1015.7
20260905124914 76 62 0.0 0.0 0.00 0.00 0.00 94 1015.7
20260905124411 76 62 0.0 0.0 0.00 0.00 0.00 95 1015.8
20260905123911 76 61 0.0 0.0 0.00 0.00 0.00 96 1015.8
20260905123407 75 61 0.0 0.0 0.00 0.00 0.00 96 1015.6
20260905122902 75 61 0.0 0.0 0.00 0.00 0.00 97 1015.7
20260905122402 74 61 0.0 0.0 0.00 0.00 0.00 98 1015.6
20260905121857 74 68 0.0 0.0 0.00 0.00 0.00 99 1015.3
20260905121353 73 146 0.0 0.0 0.00 0.00 0.00 99 1015.4
20260905120852 73 146 0.0 0.0 0.00 0.00 0.00 99 1015.4
20260905120346 73 146 0.0 0.0 0.00 0.00 0.00 99 1015.3
20260905115842 73 145 0.0 0.0 0.00 0.00 0.00 99 1015.0
20260905115340 73 145 0.0 0.0 0.00 0.00 0.00 99 1015.0
20260905114840 73 144 0.0 0.0 0.00 0.00 0.00 99 1015.0
20260905114339 73 144 0.0 0.0 0.00 0.00 0.00 99 1014.9
20260905113834 73 144 0.0 0.0 0.00 0.00 0.00 99 1015.0
20260905113330 72 144 0.0 0.0 0.00 0.00 0.00 99 1014.7
20260905112825 72 144 0.0 0.0 0.00 0.00 0.00 99 1014.9
20260905112320 72 144 0.0 0.0 0.00 0.00 0.00 99 1014.7
20260905111815 72 144 0.0 0.0 0.00 0.00 0.00 99 1014.7
20260905111309 72 144 0.0 0.0 0.00 0.00 0.00 99 1014.6
20260905110808 72 144 0.0 0.0 0.00 0.00 0.00 99 1014.5
20260905110302 72 144 0.0 0.0 0.00 0.00 0.00 99 1014.4
20260905105758 72 144 0.0 0.0 0.00 0.00 0.00 99 1014.3
20260905105257 72 144 0.0 0.0 0.00 0.00 0.00 99 1014.4
20260905104751 72 144 0.0 0.0 0.00 0.00 0.00 99 1014.4
20260905104248 72 144 0.0 0.0 0.00 0.00 0.00 99 1014.5
20260905103747 72 144 0.0 0.0 0.00 0.00 0.00 99 1014.3
20260905103243 72 145 0.0 0.0 0.00 0.00 0.00 99 1014.1
20260905102738 72 145 0.0 0.0 0.00 0.00 0.00 99 1014.2
20260905102235 73 145 0.0 0.0 0.00 0.00 0.00 99 1014.2
20260905101734 73 145 0.0 0.0 0.00 0.00 0.00 99 1014.0
20260905101233 73 144 0.0 0.0 0.00 0.00 0.00 98 1014.0
20260905100728 73 144 0.0 0.0 0.00 0.00 0.00 98 1014.1
20260905100223 73 145 0.0 0.0 0.00 0.00 0.00 98 1014.0
20260905095718 73 145 0.0 0.0 0.00 0.00 0.00 98 1013.8
20260905095218 73 145 0.0 0.0 0.00 0.00 0.00 98 1014.2
20260905094712 73 145 0.0 0.0 0.00 0.00 0.00 98 1014.0
20260905094207 73 143 0.0 0.0 0.00 0.00 0.00 98 1014.1
20260905093701 73 143 0.0 0.0 0.00 0.00 0.00 98 1014.2
20260905093158 73 143 0.0 0.0 0.00 0.00 0.00 98 1014.0
20260905092653 73 143 0.0 0.0 0.00 0.00 0.00 98 1014.1
20260905092148 73 143 0.0 0.0 0.00 0.00 0.00 98 1014.2
20260905091648 73 143 0.0 0.0 0.00 0.00 0.00 98 1014.2
20260905091147 73 143 0.0 0.0 0.00 0.00 0.00 98 1014.2
20260905090642 73 143 0.0 0.0 0.00 0.00 0.00 98 1014.2
20260905090138 73 143 0.0 0.0 0.00 0.00 0.00 98 1014.3
20260905085636 73 143 0.0 0.0 0.00 0.00 0.00 97 1013.9
20260905085126 73 143 0.0 0.0 0.00 0.00 0.00 97 1014.0
20260905084626 73 143 0.0 0.0 0.00 0.00 0.00 97 1014.1
20260905084120 73 143 0.0 0.0 0.00 0.00 0.00 97 1014.1
20260905083615 73 143 0.0 0.0 0.00 0.00 0.00 97 1014.1
20260905083112 73 143 0.0 0.0 0.00 0.00 0.00 97 1014.2
20260905082607 73 143 0.0 0.0 0.00 0.00 0.00 97 1014.1
20260905082102 73 143 0.0 0.0 0.00 0.00 0.00 97 1014.2
20260905081602 73 143 0.0 0.0 0.00 0.00 0.00 97 1014.2
20260905081057 73 143 0.0 0.0 0.00 0.00 0.00 97 1014.1
20260905080557 73 143 0.0 0.0 0.00 0.00 0.00 97 1013.8
20260905080051 74 143 0.0 0.0 0.00 0.00 0.00 97 1014.4
20260905075544 74 143 0.0 0.0 0.00 0.00 0.00 97 1014.3
20260905075038 74 143 0.0 0.0 0.00 0.00 0.00 96 1014.2
20260905074532 74 143 0.0 0.0 0.00 0.00 0.00 96 1014.1
20260905074028 74 143 0.0 0.0 0.00 0.00 0.00 96 1014.2
20260905073524 74 143 0.0 0.0 0.00 0.00 0.00 96 1014.2
20260905073020 74 143 0.0 0.0 0.00 0.00 0.00 96 1014.4
20260905072518 74 143 0.0 0.0 0.00 0.00 0.00 95 1014.2
20260905072014 74 143 0.0 0.0 0.00 0.00 0.00 95 1014.3
20260905071511 74 143 0.0 0.0 0.00 0.00 0.00 95 1014.3
20260905071011 74 143 0.0 0.0 0.00 0.00 0.00 95 1014.3
20260905070506 74 143 0.0 0.0 0.00 0.00 0.00 95 1014.3
20260905070002 74 144 0.0 0.0 0.00 0.00 0.00 95 1014.3
20260905065459 74 144 0.0 0.0 0.00 0.00 0.00 96 1014.3
20260905064955 74 144 0.0 0.0 0.00 0.00 0.00 96 1014.1
20260905064450 74 144 0.0 0.0 0.00 0.00 0.00 96 1014.0
20260905063945 74 144 0.0 0.0 0.00 0.00 0.00 96 1014.1
20260905063439 74 144 0.0 0.0 0.00 0.00 0.00 96 1014.1
20260905062935 74 144 0.0 0.0 0.00 0.00 0.00 96 1014.1
20260905062429 74 144 0.0 0.0 0.00 0.00 0.00 96 1014.1
20260905061924 74 144 0.0 0.0 0.00 0.00 0.00 96 1014.2
20260905061419 74 144 0.0 0.0 0.00 0.00 0.00 96 1014.1
20260905060918 74 144 0.0 0.0 0.00 0.00 0.00 96 1013.9
20260905060415 74 144 0.0 0.0 0.00 0.00 0.00 96 1014.2
20260905055914 74 144 0.0 0.0 0.00 0.00 0.00 95 1014.2
20260905055409 74 144 0.0 0.0 0.00 0.00 0.00 95 1014.4
20260905054908 75 144 0.0 0.0 0.00 0.00 0.00 95 1014.2
20260905054405 75 144 0.0 0.0 0.00 0.00 0.00 95 1014.3
20260905053904 75 144 0.0 0.0 0.00 0.00 0.00 95 1014.2
20260905053359 75 144 0.0 0.0 0.00 0.00 0.00 95 1014.4
20260905052855 75 144 0.0 0.0 0.00 0.00 0.00 95 1014.6
20260905052353 75 144 0.0 0.0 0.00 0.00 0.00 95 1014.7
20260905051848 75 144 0.0 0.0 0.00 0.00 0.00 95 1014.4
20260905051344 75 146 0.0 0.0 0.00 0.00 0.00 95 1014.3
20260905050841 75 134 0.0 0.0 0.00 0.00 0.00 94 1014.3
20260905050336 75 134 0.0 0.0 0.00 0.00 0.00 94 1014.5
20260905045831 75 134 0.0 0.0 0.00 0.00 0.00 94 1014.5
20260905045326 75 134 0.0 0.0 0.00 0.00 0.00 94 1014.5
20260905044822 75 134 0.0 0.0 0.00 0.00 0.00 93 1014.5
20260905044317 75 134 0.0 0.0 0.00 0.00 0.00 93 1015.0
20260905043816 75 134 0.0 0.0 0.00 0.00 0.00 93 1014.7
20260905043310 75 134 0.0 0.0 0.00 0.00 0.00 93 1014.7
20260905042810 76 134 0.0 0.0 0.00 0.00 0.00 92 1014.7
20260905042307 76 134 0.0 0.0 0.00 0.00 0.00 92 1014.7
20260905041800 76 134 0.0 0.0 0.00 0.00 0.00 92 1014.6
20260905041256 76 134 0.0 0.0 0.00 0.00 0.00 91 1014.5
20260905040751 76 134 0.0 0.0 0.00 0.00 0.00 91 1014.5
20260905040249 76 134 0.0 0.0 0.00 0.00 0.00 91 1014.5
20260905035744 76 134 0.0 0.0 0.00 0.00 0.00 90 1014.8
20260905035240 76 134 0.0 0.0 0.00 0.00 0.00 90 1014.9
20260905034737 76 134 0.0 0.0 0.00 0.00 0.00 89 1014.6
20260905034237 76 134 0.0 0.0 0.00 0.00 0.00 89 1014.7
20260905033735 76 134 0.0 0.0 0.00 0.00 0.00 89 1014.8
20260905033225 77 133 0.0 0.0 0.00 0.00 0.00 89 1014.7
20260905032725 77 133 0.0 0.0 0.00 0.00 0.00 89 1014.6
20260905032220 77 133 0.0 0.0 0.00 0.00 0.00 88 1014.9
20260905031715 77 122 0.0 0.0 0.00 0.00 0.00 88 1014.9
20260905031211 0 0.0 0.0 0.00 0.00 0.00 1014.8
20260905030706 77 119 0.0 0.0 0.00 0.00 0.00 86 1014.9
20260905030201 77 119 0.0 0.0 0.00 0.00 0.00 86 1015.0
20260905025656 77 127 0.0 0.0 0.00 0.00 0.00 86 1015.0
20260905025151 77 134 0.0 0.0 0.00 0.00 0.00 86 1015.1
20260905024647 77 133 0.0 0.0 0.00 0.00 0.00 86 1015.1
20260905024143 77 128 0.0 0.0 0.00 0.00 0.00 86 1015.1
20260905023638 77 126 0.0 0.0 0.00 0.00 0.00 85 1015.3
20260905023137 77 117 0.0 0.0 0.00 0.00 0.00 85 1015.2
20260905022636 77 100 0.0 0.0 0.00 0.00 0.00 85 1015.2